Regional Weather Roundup
Issued by NWS Goodland, KS

Home | Current Version | Previous Version | Graphics & Text | Print | Product List | Glossary On
Versions: 1 2 3 4 5 6 7 8 9 10 11 12 13 14 15 16 17 18 19 20 21 22 23 24 25 26 27 28 29 30 31 32 33 34 35 36 37 38 39 40 41 42 43 44 45 46 47 48 49 50
000
ASUS43 KGLD 260759
RWRGLD

GOODLAND FORECAST AREA HOURLY WEATHER ROUNDUP
NATIONAL WEATHER SERVICE GOODLAND KS
200 AM MDT SUN APR 26 2015

...OFFICIAL OBSERVATIONS...

CITY           SKY/WX    TMP DP  RH WIND       PRES   REMARKS
GOODLAND KS    FOG       46  46 100 E16       29.84R VSB 1/2
HILL CITY KS   CLOUDY    48  46  93 E14G23    29.83F FOG
IMPERIAL NEB   LGT RAIN  46  44  93 E8        29.88R FOG
MCCOOK NEB     CLOUDY    47  45  93 E15       29.85S FOG
AKRON CO       CLOUDY    45  44  97 E18G25    29.81S
BURLINGTON CO  FOG       48  46  93 E22G30    29.80R VSB 1/2
LIMON CO       CLOUDY    50  47  89 E15       29.78F
$$

...UNOFFICIAL OBSERVATIONS...

CITY           SKY/WX    TMP DP  RH WIND       PRES   REMARKS
GOVE KS          N/A     49  32  52 MISG        N/A
LENORA KS        N/A     46  32  58 MISG        N/A
SHARON SPRINGS   N/A     49  47  95 N17G26      N/A
KIT CARSON CO    N/A     50  47  90 MISG        N/A
YUMA CO          N/A     50  49  97 NE16        N/A
$$


USA.gov is the U.S. government's official web portal to all federal, state and local government web resources and services.